When you browse on this site, cookies collect data to enhance your experience and personalize the content and advertising you see.
Visit our Privacy Policy to learn more. By continuing to use the site, you agree to this use of cookies and data.
  • In Hungary
  • List of Countries
  • For 7 days
  • Water Temperature
  • Weather Map
  • News
  • Weather Widgets
  • user-avatar
    Login

    Hourly Weather San Jose del Cabo

    Today, 18 November, Monday

    Time Temperature Precipitation Wind Pressure Humidity
    00:00 +27°C° 1.1 mm 8 mps 756 mmHg 91%
    01:00 +27°C° 1.1 mm 7 mps 756 mmHg 91%
    02:00 +27°C° 1.1 mm 7 mps 756 mmHg 91%
    03:00 +27°C° 0.4 mm 7 mps 756 mmHg 91%
    04:00 +27°C° 0.4 mm 6 mps 756 mmHg 92%
    05:00 +27°C° 0.4 mm 6 mps 756 mmHg 92%
    06:00 +27°C° 0.4 mm 6 mps 756 mmHg 92%
    07:00 +27°C° 0.4 mm 5 mps 757 mmHg 91%
    08:00 +28°C° 0.4 mm 5 mps 758 mmHg 91%
    09:00 +28°C° 0.3 mm 4 mps 758 mmHg 87%
    10:00 +29°C° 0.3 mm 4 mps 758 mmHg 82%
    11:00 +30°C° 0.3 mm 4 mps 758 mmHg 78%
    12:00 +30°C° 0.1 mm 4 mps 757 mmHg 75%
    13:00 +32°C° 0.1 mm 4 mps 757 mmHg 71%
    14:00 +32°C° 0.1 mm 4 mps 756 mmHg 68%
    15:00 +30°C° 0 mm 4 mps 756 mmHg 72%
    16:00 +30°C° 0 mm 4 mps 756 mmHg 75%
    17:00 +29°C° 0 mm 4 mps 756 mmHg 79%
    18:00 +28°C° 0.1 mm 3 mps 757 mmHg 83%
    19:00 +27°C° 0.1 mm 3 mps 757 mmHg 86%
    20:00 +26°C° 0.1 mm 2 mps 758 mmHg 90%
    21:00 +26°C° 0 mm 2 mps 758 mmHg 90%
    22:00 +26°C° 0 mm 2 mps 758 mmHg 89%
    23:00 +26°C° 0 mm 2 mps 758 mmHg 89%

    Tomorrow, 19 November, Tuesday

    Time Temperature Precipitation Wind Pressure Humidity
    00:00 +26°C° 0 mm 2 mps 758 mmHg 89%
    01:00 +25°C° 0 mm 3 mps 757 mmHg 89%
    02:00 +25°C° 0 mm 3 mps 757 mmHg 89%
    03:00 +25°C° 0 mm 3 mps 757 mmHg 89%
    04:00 +25°C° 0 mm 3 mps 757 mmHg 89%
    05:00 +25°C° 0 mm 3 mps 757 mmHg 89%
    06:00 +25°C° 0 mm 3 mps 757 mmHg 86%
    07:00 +26°C° 0 mm 3 mps 758 mmHg 84%
    08:00 +26°C° 0 mm 2 mps 758 mmHg 81%
    09:00 +27°C° 0 mm 3 mps 758 mmHg 75%
    10:00 +28°C° 0 mm 3 mps 758 mmHg 70%
    11:00 +30°C° 0 mm 3 mps 758 mmHg 64%
    12:00 +30°C° 0 mm 4 mps 758 mmHg 63%
    13:00 +30°C° 0 mm 5 mps 757 mmHg 63%
    14:00 +30°C° 0 mm 6 mps 757 mmHg 63%
    15:00 +29°C° 0 mm 6 mps 757 mmHg 66%
    16:00 +28°C° 0 mm 6 mps 757 mmHg 70%
    17:00 +27°C° 0 mm 6 mps 757 mmHg 74%
    18:00 +26°C° 0 mm 5 mps 757 mmHg 75%
    19:00 +25°C° 0 mm 5 mps 757 mmHg 76%
    20:00 +25°C° 0 mm 5 mps 758 mmHg 78%
    21:00 +23°C° 0 mm 5 mps 758 mmHg 78%
    22:00 +23°C° 0 mm 5 mps 758 mmHg 78%
    23:00 +22°C° 0 mm 5 mps 758 mmHg 78%

    Day after tomorrow, 20 November, Wednesday

    Time Temperature Precipitation Wind Pressure Humidity
    00:00 +22°C° 0 mm 5 mps 758 mmHg 78%
    01:00 +22°C° 0 mm 5 mps 758 mmHg 78%
    02:00 +22°C° 0 mm 5 mps 758 mmHg 79%
    03:00 +22°C° 0 mm 4 mps 758 mmHg 78%
    04:00 +21°C° 0 mm 4 mps 758 mmHg 78%
    05:00 +21°C° 0 mm 4 mps 758 mmHg 77%
    06:00 +21°C° 0 mm 4 mps 758 mmHg 74%
    07:00 +22°C° 0 mm 3 mps 759 mmHg 70%
    08:00 +22°C° 0 mm 3 mps 759 mmHg 67%
    09:00 +24°C° 0 mm 3 mps 759 mmHg 62%
    10:00 +26°C° 0 mm 2 mps 759 mmHg 58%
    11:00 +27°C° 0 mm 2 mps 760 mmHg 53%
    12:00 +27°C° 0 mm 3 mps 759 mmHg 55%
    13:00 +27°C° 0 mm 3 mps 758 mmHg 56%
    14:00 +27°C° 0 mm 3 mps 758 mmHg 58%
    15:00 +27°C° 0 mm 3 mps 758 mmHg 61%
    16:00 +26°C° 0 mm 4 mps 758 mmHg 64%
    17:00 +25°C° 0 mm 4 mps 758 mmHg 67%
    18:00 +24°C° 0 mm 3 mps 758 mmHg 71%
    19:00 +22°C° 0 mm 3 mps 759 mmHg 74%
    20:00 +21°C° 0 mm 2 mps 759 mmHg 78%
    21:00 +21°C° 0 mm 2 mps 759 mmHg 79%
    22:00 +21°C° 0 mm 2 mps 759 mmHg 79%
    23:00 +20°C° 0 mm 2 mps 759 mmHg 80%

    21 November, Thursday

    Time Temperature Precipitation Wind Pressure Humidity
    00:00 +20°C° 0 mm 2 mps 759 mmHg 80%
    01:00 +20°C° 0 mm 2 mps 759 mmHg 80%
    02:00 +20°C° 0 mm 2 mps 758 mmHg 79%
    03:00 +19°C° 0 mm 2 mps 758 mmHg 79%
    04:00 +19°C° 0 mm 2 mps 759 mmHg 79%
    05:00 +20°C° 0 mm 1 mps 759 mmHg 79%
    06:00 +21°C° 0 mm 1 mps 759 mmHg 75%
    07:00 +22°C° 0 mm 1 mps 759 mmHg 70%
    08:00 +23°C° 0 mm 1 mps 760 mmHg 66%
    09:00 +25°C° 0 mm 1 mps 760 mmHg 61%
    10:00 +26°C° 0 mm 1 mps 760 mmHg 57%
    11:00 +27°C° 0 mm 1 mps 760 mmHg 53%
    12:00 +27°C° 0 mm 2 mps 760 mmHg 54%
    13:00 +27°C° 0 mm 2 mps 759 mmHg 54%
    14:00 +28°C° 0 mm 3 mps 758 mmHg 55%
    15:00 +27°C° 0 mm 3 mps 758 mmHg 59%
    16:00 +26°C° 0 mm 3 mps 759 mmHg 62%
    17:00 +26°C° 0 mm 3 mps 759 mmHg 65%
    18:00 +24°C° 0 mm 2 mps 759 mmHg 70%
    19:00 +23°C° 0 mm 2 mps 759 mmHg 75%
    20:00 +21°C° 0 mm 2 mps 760 mmHg 80%
    21:00 +21°C° 0 mm 2 mps 760 mmHg 81%
    22:00 +21°C° 0 mm 2 mps 760 mmHg 82%
    23:00 +21°C° 0 mm 2 mps 760 mmHg 82%

    22 November, Friday

    Time Temperature Precipitation Wind Pressure Humidity
    00:00 +20°C° 0 mm 2 mps 760 mmHg 83%
    01:00 +20°C° 0 mm 2 mps 760 mmHg 83%
    02:00 +20°C° 0 mm 2 mps 759 mmHg 83%
    03:00 +20°C° 0 mm 2 mps 759 mmHg 83%
    04:00 +20°C° 0 mm 2 mps 759 mmHg 82%
    05:00 +19°C° 0 mm 2 mps 759 mmHg 81%
    06:00 +20°C° 0 mm 2 mps 760 mmHg 78%
    07:00 +21°C° 0 mm 2 mps 760 mmHg 75%
    08:00 +23°C° 0 mm 2 mps 761 mmHg 72%
    09:00 +25°C° 0 mm 2 mps 761 mmHg 67%
    10:00 +26°C° 0 mm 2 mps 761 mmHg 62%
    11:00 +27°C° 0 mm 2 mps 761 mmHg 56%
    12:00 +27°C° 0 mm 2 mps 760 mmHg 57%
    13:00 +28°C° 0 mm 3 mps 760 mmHg 57%
    14:00 +28°C° 0 mm 3 mps 759 mmHg 58%
    15:00 +27°C° 0 mm 3 mps 759 mmHg 62%
    16:00 +27°C° 0 mm 2 mps 759 mmHg 66%
    17:00 +26°C° 0 mm 2 mps 759 mmHg 70%
    18:00 +25°C° 0 mm 2 mps 759 mmHg 75%
    19:00 +24°C° 0 mm 2 mps 760 mmHg 81%
    20:00 +23°C° 0 mm 2 mps 760 mmHg 86%
    21:00 +21°C° 0 mm 2 mps 760 mmHg 87%
    22:00 +21°C° 0 mm 2 mps 760 mmHg 87%
    23:00 +20°C° 0 mm 2 mps 760 mmHg 88%

    23 November, Saturday

    Time Temperature Precipitation Wind Pressure Humidity
    00:00 +20°C° 0 mm 2 mps 760 mmHg 87%
    01:00 +20°C° 0 mm 2 mps 760 mmHg 86%
    02:00 +20°C° 0 mm 2 mps 759 mmHg 86%
    03:00 +19°C° 0 mm 2 mps 759 mmHg 85%
    04:00 +19°C° 0 mm 2 mps 759 mmHg 85%
    05:00 +19°C° 0 mm 3 mps 759 mmHg 85%
    06:00 +20°C° 0 mm 3 mps 760 mmHg 82%
    07:00 +21°C° 0 mm 3 mps 760 mmHg 78%
    08:00 +22°C° 0 mm 3 mps 761 mmHg 75%
    09:00 +24°C° 0 mm 3 mps 761 mmHg 68%
    10:00 +26°C° 0 mm 2 mps 761 mmHg 61%
    11:00 +27°C° 0 mm 2 mps 761 mmHg 54%
    12:00 +27°C° 0 mm 2 mps 760 mmHg 55%
    13:00 +28°C° 0 mm 2 mps 759 mmHg 55%
    14:00 +28°C° 0 mm 3 mps 759 mmHg 55%
    15:00 +27°C° 0 mm 3 mps 759 mmHg 60%
    16:00 +26°C° 0 mm 2 mps 759 mmHg 64%
    17:00 +26°C° 0 mm 2 mps 759 mmHg 69%
    18:00 +24°C° 0 mm 2 mps 759 mmHg 74%
    19:00 +23°C° 0 mm 2 mps 759 mmHg 80%
    20:00 +21°C° 0 mm 2 mps 760 mmHg 85%
    21:00 +20°C° 0 mm 2 mps 760 mmHg 86%
    22:00 +20°C° 0 mm 2 mps 760 mmHg 86%
    23:00 +20°C° 0 mm 2 mps 760 mmHg 86%
    Show more